Weather History for Clarksburg, WV

Change the Weather History Date:

Wednesday, March 6, 2013

  Actual Average Record
Temperature  
Mean Temperature 34 °F -  
Max Temperature 37 °F 51 °F 83 °F (1983)
Min Temperature 30 °F 28 °F 7 °F (1960)
Degree Days  
Heating Degree Days 32    
Moisture  
Dew Point 30 °F    
Average Humidity 87    
Maximum Humidity 96    
Minimum Humidity 75    
Precipitation  
Precipitation 0.43 in - - ()
Sea Level Pressure  
Sea Level Pressure 29.85 in    
Wind  
Wind Speed 5 mph (NW)    
Max Wind Speed 13 mph    
Max Gust Speed 18 mph    
Visibility 4 miles    
Events Fog , Snow    
Averages and records for this station are not official NWS values.
T = Trace of Precipitation, MM = Missing Value Source: NWS Daily Summary

Daily Weather History Graph

Daily Weather History Graph

Search for Another Location

Airport:

Trip Planner

Search our weather history database for the weather conditions in past years. The results will help you decide how hot, cold, wet, or windy it might be!

Date:

Astronomy

Mar. 06, 2013 Rise Set
Actual Time 6:45 AM EST 6:18 PM EST
Civil Twilight 6:19 AM EST 6:45 PM EST
Nautical Twilight 5:48 AM EST 7:16 PM EST
Astronomical Twilight 5:16 AM EST 7:47 PM EST
Moon 2:52 AM EST (3/6) 1:00 PM EST (3/6)
Length of Visible Light 12h 26m
Length of Day
11h 33m
Waning Crescent, 30% of the Moon is Illuminated
Mar 6
Waning Crescent
Mar 11
New
Mar 19
First Quarter
Mar 27
Full
Apr 3
Last Quarter

Hourly Weather History & Observations

Time (EST) Temp. Windchill Dew Point Humidity Pressure Visibility Wind Dir Wind Speed Gust Speed Precip Events Conditions
12:53 AM 33.1 °F 30.0 °F 30.9 °F 92% 29.61 in 2.0 mi ESE 3.5 mph - 0.11 in Snow Light Snow
1:02 AM 33.8 °F 29.6 °F 30.2 °F 87% 29.61 in 1.8 mi SE 4.6 mph - 0.01 in Snow Light Snow
1:08 AM 33.8 °F 29.6 °F 30.2 °F 87% 29.61 in 1.2 mi SSE 4.6 mph - 0.02 in Snow Light Snow
1:15 AM 33.8 °F 28.6 °F 30.2 °F 87% 29.62 in 1.2 mi SE 5.8 mph - 0.03 in Snow Light Snow
1:23 AM 33.8 °F 28.6 °F 30.2 °F 87% 29.62 in 1.2 mi SE 5.8 mph - 0.05 in Snow Light Snow
1:44 AM 33.8 °F 24.8 °F 30.2 °F 87% 29.65 in 0.8 mi WSW 12.7 mph - 0.13 in Snow Light Snow
1:53 AM 33.1 °F 26.9 °F 30.9 °F 92% 29.66 in 1.0 mi SW 6.9 mph 18.4 mph 0.13 in Snow Light Snow
2:53 AM 32.0 °F 27.5 °F 30.9 °F 96% 29.67 in 1.2 mi Variable 4.6 mph - 0.04 in Snow Light Snow
3:06 AM 32.0 °F 27.5 °F 30.2 °F 93% 29.66 in 1.5 mi SW 4.6 mph - 0.01 in Snow Light Snow
3:25 AM 32.0 °F 24.8 °F 30.2 °F 93% 29.67 in 0.5 mi WSW 8.1 mph - 0.04 in Fog , Snow Snow
3:39 AM 32.0 °F - 30.2 °F 93% 29.67 in 1.0 mi Calm Calm - 0.05 in Snow Light Snow
3:53 AM 32.0 °F - 30.0 °F 92% 29.68 in 1.0 mi Calm Calm - 0.06 in Snow Light Snow
4:53 AM 32.0 °F - 30.9 °F 96% 29.70 in 1.0 mi Calm Calm - 0.04 in Snow Light Snow
5:08 AM 32.0 °F - 30.2 °F 93% 29.71 in 0.8 mi Calm Calm - 0.02 in Snow Light Snow
5:15 AM 32.0 °F - 30.2 °F 93% 29.71 in 0.8 mi Calm Calm - 0.02 in Snow Light Snow
5:19 AM 32.0 °F - 30.2 °F 93% 29.71 in 1.0 mi Calm Calm - 0.03 in Snow Light Snow
5:45 AM 30.2 °F 26.7 °F 28.4 °F 93% 29.72 in 3.0 mi SW 3.5 mph - 0.04 in Snow Light Snow
5:53 AM 30.9 °F 27.5 °F 28.9 °F 92% 29.73 in 4.0 mi WSW 3.5 mph - 0.04 in Snow Light Snow
6:13 AM 32.0 °F - 28.4 °F 87% 29.74 in 2.0 mi Calm Calm - 0.00 in   Overcast
6:46 AM 30.2 °F - 28.4 °F 93% 29.75 in 2.0 mi Calm Calm - 0.00 in   Overcast
6:53 AM 30.9 °F 27.5 °F 28.9 °F 92% 29.75 in 2.0 mi NW 3.5 mph - 0.00 in   Overcast
7:00 AM 30.2 °F 26.7 °F 28.4 °F 93% 29.75 in 4.0 mi NW 3.5 mph - N/A   Overcast
7:53 AM 30.9 °F 25.2 °F 28.0 °F 89% 29.78 in 3.0 mi NNW 5.8 mph - 0.00 in Snow Light Snow
8:19 AM 30.2 °F 25.4 °F 28.4 °F 93% 29.80 in 1.8 mi NNW 4.6 mph - 0.00 in Snow Light Snow
8:24 AM 30.2 °F 25.4 °F 28.4 °F 93% 29.80 in 1.5 mi NNW 4.6 mph - 0.00 in Snow Light Snow
8:36 AM 30.2 °F 26.7 °F 28.4 °F 93% 29.81 in 3.0 mi NW 3.5 mph - 0.00 in Snow Light Snow
8:53 AM 32.0 °F 27.5 °F 28.9 °F 88% 29.83 in 3.0 mi NW 4.6 mph - 0.00 in   Overcast
9:03 AM 32.0 °F 27.5 °F 28.4 °F 87% 29.82 in 5.0 mi WNW 4.6 mph - N/A   Overcast
9:37 AM 32.0 °F 27.5 °F 28.4 °F 87% 29.84 in 3.0 mi WNW 4.6 mph - 0.00 in Snow Light Snow
9:44 AM 32.0 °F 27.5 °F 28.4 °F 87% 29.85 in 2.0 mi WNW 4.6 mph - 0.00 in Snow Light Snow
9:53 AM 32.0 °F 28.7 °F 28.9 °F 88% 29.86 in 1.5 mi WNW 3.5 mph - 0.00 in Snow Light Snow
10:02 AM 32.0 °F 28.7 °F 28.4 °F 87% 29.85 in 1.0 mi WNW 3.5 mph - 0.00 in Snow Light Snow
10:50 AM 33.8 °F 29.6 °F 30.2 °F 87% 29.88 in 2.0 mi NW 4.6 mph - 0.00 in Snow Light Snow
10:53 AM 33.1 °F 30.0 °F 30.0 °F 89% 29.89 in 2.5 mi NW 3.5 mph - 0.00 in Snow Light Snow
11:24 AM 33.8 °F 27.7 °F 30.2 °F 87% 29.90 in 1.8 mi NNW 6.9 mph - 0.01 in Snow Light Snow
11:28 AM 33.8 °F 28.6 °F 30.2 °F 87% 29.90 in 2.0 mi North 5.8 mph - 0.01 in Snow Light Snow
11:38 AM 33.8 °F 27.0 °F 30.2 °F 87% 29.91 in 2.5 mi North 8.1 mph - 0.01 in Snow Light Snow
11:41 AM 33.8 °F 28.6 °F 30.2 °F 87% 29.91 in 2.5 mi NNW 5.8 mph - 0.01 in Snow Light Snow
11:45 AM 33.8 °F 28.6 °F 30.2 °F 87% 29.91 in 3.0 mi North 5.8 mph - 0.01 in Snow Light Snow
11:53 AM 34.0 °F 28.8 °F 30.0 °F 85% 29.92 in 3.0 mi North 5.8 mph - 0.01 in Snow Light Snow
12:01 PM 33.8 °F 28.6 °F 30.2 °F 87% 29.91 in 2.5 mi NNW 5.8 mph - 0.00 in Snow Light Snow
12:12 PM 33.8 °F 30.8 °F 30.2 °F 87% 29.91 in 1.5 mi NNW 3.5 mph - 0.00 in Snow Light Snow
12:19 PM 33.8 °F 29.6 °F 30.2 °F 87% 29.91 in 2.5 mi NNW 4.6 mph - 0.00 in Snow Light Snow
12:27 PM 33.8 °F 28.6 °F 30.2 °F 87% 29.92 in 5.0 mi NNW 5.8 mph - 0.00 in Snow Light Snow
12:35 PM 33.8 °F 27.7 °F 30.2 °F 87% 29.92 in 7.0 mi NNW 6.9 mph - 0.00 in Snow Light Snow
12:49 PM 33.8 °F 26.4 °F 30.2 °F 87% 29.93 in 5.0 mi North 9.2 mph - 0.00 in   Overcast
12:53 PM 35.1 °F 28.6 °F 30.0 °F 82% 29.94 in 5.0 mi North 8.1 mph - 0.00 in   Haze
1:27 PM 35.6 °F 29.9 °F 30.2 °F 81% 29.93 in 5.0 mi NNW 6.9 mph - 0.00 in   Haze
1:35 PM 35.6 °F 29.2 °F 30.2 °F 81% 29.94 in 5.0 mi NNW 8.1 mph - 0.00 in   Haze
1:50 PM 35.6 °F 29.9 °F 30.2 °F 81% 29.94 in 5.0 mi NNW 6.9 mph - 0.00 in   Haze
1:53 PM 35.1 °F 28.6 °F 30.0 °F 82% 29.95 in 5.0 mi NNW 8.1 mph - 0.00 in   Haze
2:53 PM 36.0 °F 31.1 °F 30.9 °F 82% 29.97 in 10.0 mi NNW 5.8 mph - N/A   Overcast
3:53 PM 37.0 °F 32.4 °F 30.0 °F 76% 30.01 in 10.0 mi NW 5.8 mph - N/A   Overcast
4:30 PM 37.4 °F 33.8 °F 30.2 °F 75% 30.01 in 10.0 mi West 4.6 mph - N/A   Overcast
4:53 PM 37.0 °F 33.3 °F 30.0 °F 76% 30.04 in 10.0 mi West 4.6 mph - N/A   Overcast
5:21 PM 37.4 °F 32.1 °F 30.2 °F 75% 30.04 in 10.0 mi West 6.9 mph - N/A   Overcast
5:53 PM 36.0 °F 31.1 °F 30.9 °F 82% 30.06 in 10.0 mi WNW 5.8 mph - 0.00 in   Overcast
6:53 PM 36.0 °F 32.1 °F 30.9 °F 82% 30.07 in 10.0 mi WSW 4.6 mph - N/A   Overcast
7:53 PM 36.0 °F 32.1 °F 30.9 °F 82% 30.09 in 10.0 mi West 4.6 mph - N/A   Overcast
8:21 PM 35.6 °F 30.7 °F 30.2 °F 81% 30.09 in 10.0 mi West 5.8 mph - N/A   Overcast
8:53 PM 35.1 °F 29.3 °F 30.9 °F 85% 30.12 in 10.0 mi West 6.9 mph - N/A   Overcast
9:53 PM 35.1 °F 30.1 °F 30.9 °F 85% 30.12 in 10.0 mi West 5.8 mph - N/A   Overcast
10:53 PM 35.1 °F 30.1 °F 30.9 °F 85% 30.13 in 10.0 mi West 5.8 mph - N/A   Overcast
11:53 PM 35.1 °F 31.0 °F 30.9 °F 85% 30.12 in 10.0 mi West 4.6 mph - N/A   Overcast